Location: Centerville
(32.8776°N, 96.6203°W)
Time: 00:00:25
(UTC+00:00)

Cosmos 1980 - Pass Details

Date: 17 June 2021
Orbit: 839 x 848 km, 71.0° (Epoch: 27 July)

Event Time Altitude Azimuth Distance (km) Brightness Sun altitude
Exits shadow 05:37:27 52° 10° (N) 1,042 4.3 -32.5°
Drops below altitude 10° 05:41:42 10° 19° (NNE) 2,473 6.8 -32.7°
Sets 05:44:09 0° 20° (NNE) 3,412 7.6 -32.8°
